Weather History for KABE - January, 2015

Change the Weather History Date:

Sunday, January 18, 2015

  Actual Average Record
Temperature  
Mean Temperature 30 °F 27 °F  
Max Temperature 38 °F 36 °F 63 °F (2006)
Min Temperature 22 °F 19 °F -10 °F (1954)
Degree Days  
Heating Degree Days 35 38  
Month to date heating degree days 717 672  
Since 1 July heating degree days 2712 2867  
Cooling Degree Days 0 0  
Month to date cooling degree days 0 0  
Year to date cooling degree days 0 0  
Moisture  
Dew Point 29 °F    
Average Humidity 75    
Maximum Humidity 92    
Minimum Humidity 57    
Precipitation  
Precipitation 0.41 in 0.10 in 1.22 in (2006)
Month to date precipitation 1.76 1.74  
Year to date precipitation 1.76 1.74  
Snow  
Snow 0.00 in 0.30 in 4.50 in (1930)
Month to date snowfall 1.6 5.5  
Since 1 July snowfall 7.9 11.4  
Snow Depth 0.00 in    
Sea Level Pressure  
Sea Level Pressure 29.86 in    
Wind  
Wind Speed 5 mph (ESE)    
Max Wind Speed 10 mph    
Max Gust Speed 13 mph    
Visibility 4 miles    
Events Rain    
T = Trace of Precipitation, MM = Missing Value Source: NWS Daily Summary

Daily Weather History Graph

Daily Weather History Graph

Search for Another Location

Airport or City:

Trip Planner

Search our weather history database for the weather conditions in past years. The results will help you decide how hot, cold, wet, or windy it might be!

Date:

Astronomy

Jan. 18, 2015 Rise Set
Actual Time 7:22 AM EST 5:02 PM EST
Civil Twilight 6:52 AM EST 5:32 PM EST
Nautical Twilight 6:18 AM EST 6:05 PM EST
Astronomical Twilight 5:46 AM EST 6:38 PM EST
Moon 5:15 AM EST (1/18) 3:23 PM EST (1/18)
Length of Visible Light 10h 40m
Length of Day
9h 40m
Waning Crescent, 5% of the Moon is Illuminated
Jan 18
Waning Crescent
Jan 20
New
Jan 26
First Quarter
Feb 3
Full
Feb 11
Last Quarter

Hourly Weather History & Observations

Time (EST) Temp. Windchill Dew Point Humidity Pressure Visibility Wind Dir Wind Speed Gust Speed Precip Events Conditions
12:51 AM 21.9 °F - 12.9 °F 68% 30.19 in 10.0 mi Calm Calm - N/A   Clear
1:13 AM 23.0 °F 18.4 °F 12.2 °F 63% 30.17 in 10.0 mi North 3.5 mph - N/A   Mostly Cloudy
1:51 AM 24.1 °F - 15.1 °F 69% 30.18 in 10.0 mi Calm Calm - N/A   Overcast
2:51 AM 25.0 °F 19.3 °F 17.1 °F 72% 30.15 in 10.0 mi NE 4.6 mph - N/A   Overcast
3:17 AM 26.6 °F 21.2 °F 15.8 °F 64% 30.12 in 10.0 mi North 4.6 mph - N/A   Overcast
3:51 AM 26.1 °F 20.5 °F 17.1 °F 69% 30.14 in 10.0 mi ENE 4.6 mph - N/A   Overcast
4:51 AM 27.0 °F 21.6 °F 17.1 °F 66% 30.11 in 10.0 mi East 4.6 mph - N/A   Overcast
5:41 AM 28.4 °F 22.2 °F 17.6 °F 64% 30.07 in 10.0 mi ENE 5.8 mph - N/A   Overcast
5:51 AM 28.0 °F 22.8 °F 19.0 °F 69% 30.09 in 10.0 mi NE 4.6 mph - N/A   Overcast
6:51 AM 28.9 °F 22.8 °F 19.9 °F 69% 30.06 in 10.0 mi East 5.8 mph - N/A   Overcast
7:51 AM 28.9 °F 25.2 °F 23.0 °F 78% 30.06 in 8.0 mi ENE 3.5 mph - N/A   Overcast
8:10 AM 28.4 °F 22.2 °F 24.8 °F 86% 30.01 in 2.5 mi East 5.8 mph - N/A   Haze
8:37 AM 30.2 °F 23.4 °F 26.6 °F 86% 30.00 in 1.5 mi East 6.9 mph - 0.00 in   Overcast
8:42 AM 30.2 °F 24.3 °F 26.6 °F 86% 29.99 in 2.5 mi East 5.8 mph - 0.00 in   Overcast
8:51 AM 30.0 °F 23.2 °F 26.1 °F 85% 30.00 in 2.5 mi East 6.9 mph - 0.00 in   Overcast
9:27 AM 30.2 °F 26.7 °F 26.6 °F 86% 29.99 in 4.0 mi NE 3.5 mph - 0.00 in   Overcast
9:51 AM 30.9 °F 27.5 °F 28.0 °F 89% 30.01 in 3.0 mi ENE 3.5 mph - 0.02 in   Overcast
10:41 AM 32.0 °F 28.7 °F 28.4 °F 87% 29.95 in 3.0 mi ENE 3.5 mph - 0.02 in Rain Light Freezing Rain
10:51 AM 32.0 °F - 28.9 °F 88% 29.97 in 3.0 mi Calm Calm - 0.02 in Rain Light Freezing Rain
11:18 AM 32.0 °F 27.5 °F 28.4 °F 87% 29.93 in 2.5 mi East 4.6 mph - 0.01 in Rain Light Freezing Rain
11:35 AM 33.8 °F 29.6 °F 28.4 °F 81% 29.92 in 2.0 mi ENE 4.6 mph - 0.03 in Rain Light Freezing Rain
11:51 AM 33.1 °F - 30.0 °F 89% 29.93 in 1.8 mi Calm Calm - 0.05 in Rain Light Freezing Rain
12:12 PM 33.8 °F - 30.2 °F 87% 29.88 in 1.5 mi Calm Calm - 0.05 in Rain Rain
12:35 PM 33.8 °F 28.6 °F 30.2 °F 87% 29.85 in 1.8 mi East 5.8 mph - 0.09 in Rain Rain
12:51 PM 33.1 °F 26.1 °F 30.9 °F 92% 29.85 in 1.5 mi East 8.1 mph - 0.13 in Rain Rain
1:01 PM 33.8 °F 29.6 °F 30.2 °F 87% 29.82 in 1.8 mi East 4.6 mph - 0.02 in Rain Rain
1:10 PM 35.6 °F 29.9 °F 33.8 °F 93% 29.82 in 2.5 mi ESE 6.9 mph - 0.04 in Rain Rain
1:20 PM 35.6 °F 29.9 °F 32.0 °F 87% 29.81 in 3.0 mi ESE 6.9 mph - 0.05 in Rain Light Rain
1:31 PM 35.6 °F 29.2 °F 32.0 °F 87% 29.79 in 2.5 mi East 8.1 mph - 0.05 in Rain Light Rain
1:51 PM 35.1 °F 31.0 °F 33.1 °F 92% 29.80 in 2.5 mi North 4.6 mph - 0.05 in Rain Light Rain
2:11 PM 35.6 °F 29.9 °F 33.8 °F 93% 29.76 in 1.8 mi ENE 6.9 mph - 0.02 in Rain Light Rain
2:26 PM 37.4 °F 32.1 °F 35.6 °F 93% 29.74 in 3.0 mi NE 6.9 mph - 0.03 in Rain Light Rain
2:51 PM 37.0 °F 31.6 °F 35.1 °F 93% 29.74 in 4.0 mi NNE 6.9 mph - 0.03 in   Overcast
3:01 PM 37.4 °F 33.8 °F 35.6 °F 93% 29.72 in 4.0 mi NNE 4.6 mph - 0.00 in Rain Light Rain
3:25 PM 37.4 °F 33.8 °F 35.6 °F 93% 29.72 in 4.0 mi North 4.6 mph - 0.00 in   Overcast
3:32 PM 37.4 °F 34.9 °F 35.6 °F 93% 29.72 in 4.0 mi North 3.5 mph - 0.00 in   Overcast
3:51 PM 37.9 °F 35.5 °F 35.1 °F 89% 29.74 in 3.0 mi NNW 3.5 mph - 0.01 in Rain Light Rain
3:55 PM 37.4 °F 34.9 °F 35.6 °F 93% 29.72 in 2.0 mi NNW 3.5 mph - 0.00 in Rain Rain
4:03 PM 37.4 °F - 35.6 °F 93% 29.72 in 1.5 mi Calm Calm - 0.03 in Rain Rain
4:10 PM 37.4 °F 34.9 °F 35.6 °F 93% 29.72 in 2.0 mi East 3.5 mph - 0.05 in Rain Light Rain
4:30 PM 37.4 °F 32.8 °F 35.6 °F 93% 29.72 in 2.0 mi West 5.8 mph - 0.05 in Rain Light Rain
4:34 PM 37.4 °F 32.8 °F 35.6 °F 93% 29.72 in 1.5 mi West 5.8 mph - 0.05 in Rain Light Rain
4:41 PM 37.4 °F 32.1 °F 35.6 °F 93% 29.73 in 0.5 mi WSW 6.9 mph - 0.05 in Rain Light Rain
4:51 PM 37.0 °F 31.0 °F 35.1 °F 93% 29.75 in 0.5 mi WSW 8.1 mph - 0.07 in Rain Rain
5:13 PM 37.4 °F 33.8 °F 35.6 °F 93% 29.74 in 1.8 mi South 4.6 mph - 0.01 in Rain Light Rain
5:16 PM 37.4 °F 34.9 °F 35.6 °F 93% 29.74 in 2.0 mi Variable 3.5 mph - 0.01 in   Overcast
5:21 PM 37.4 °F 33.8 °F 35.6 °F 93% 29.73 in 3.0 mi SW 4.6 mph - 0.02 in Rain Light Rain
5:29 PM 37.4 °F 32.8 °F 35.6 °F 93% 29.74 in 2.5 mi WSW 5.8 mph - 0.02 in Rain Light Rain
5:51 PM 37.0 °F 32.4 °F 34.0 °F 89% 29.76 in 2.0 mi SW 5.8 mph - 0.03 in   Overcast
6:37 PM 35.6 °F 30.7 °F 33.8 °F 93% 29.75 in 1.5 mi SW 5.8 mph - 0.00 in   Overcast
6:51 PM 36.0 °F 32.1 °F 34.0 °F 93% 29.76 in 2.0 mi SW 4.6 mph - 0.00 in   Overcast
6:58 PM 35.6 °F 31.7 °F 33.8 °F 93% 29.75 in 2.0 mi SSW 4.6 mph - N/A   Overcast
7:25 PM 35.6 °F 29.2 °F 33.8 °F 93% 29.75 in 2.5 mi SW 8.1 mph - N/A   Overcast
7:51 PM 35.1 °F 28.6 °F 33.1 °F 92% 29.77 in 2.5 mi WSW 8.1 mph - N/A   Overcast
8:51 PM 33.1 °F 26.9 °F 30.9 °F 92% 29.76 in 2.5 mi SW 6.9 mph - N/A   Clear
8:59 PM 33.8 °F 27.0 °F 30.2 °F 87% 29.75 in 3.0 mi SW 8.1 mph - N/A   Clear
9:24 PM 33.8 °F 27.7 °F 30.2 °F 87% 29.75 in 2.5 mi SW 6.9 mph - N/A   Clear
9:41 PM 32.0 °F 24.8 °F 30.2 °F 93% 29.75 in 1.8 mi SSW 8.1 mph - N/A   Partly Cloudy
9:51 PM 33.1 °F 26.1 °F 30.0 °F 89% 29.77 in 1.2 mi SSW 8.1 mph - N/A   Mostly Cloudy
10:25 PM 32.0 °F 26.4 °F 30.2 °F 93% 29.76 in 0.8 mi SSW 5.8 mph - N/A   Mostly Cloudy
10:33 PM 33.8 °F 28.6 °F 30.2 °F 87% 29.76 in 1.2 mi South 5.8 mph - N/A   Overcast
10:44 PM 32.0 °F 26.4 °F 30.2 °F 93% 29.76 in 2.5 mi SSW 5.8 mph - N/A   Mostly Cloudy
10:48 PM 32.0 °F 27.5 °F 30.2 °F 93% 29.76 in 3.0 mi SSW 4.6 mph - N/A   Scattered Clouds
10:51 PM 32.0 °F 26.4 °F 30.0 °F 92% 29.78 in 2.5 mi SSW 5.8 mph - N/A   Scattered Clouds
11:51 PM 30.0 °F 23.2 °F 28.0 °F 92% 29.78 in 5.0 mi SW 6.9 mph - N/A   Partly Cloudy